SCP
0 0 0 0 0 0 0 0 0 0 0 0 0 0 0 0 0 0 0 0 0 0
0 0 0 0 0 0 0 0 0 0 0 0 0 0 0 0 0 0 0 0 0 0
0 0 0 0 0 0 0 0 0 0 0 0 0 0 0 0 0 0 0 0 0 0
0 0 0 0 0 0 0 0 0 0 0 0 0 0 0 0 0 0 0 0 0 0
0 0 0 0 0 0 0 0 0 0 0 0 0 0 0 0 0 0 0 0 0 0
0 0 0 0 0 0 0 0 0 0 0 0 0 0 0 0 0 0 0 0 0 0
0 0 0 0 0 0 0 0 0 0 0 0 0 0 0 0 0 0 0 0 0 0
0 0 0 0 0 0 0 0 0 0 0 0 0 0 0 0 0 0 0 0 0 0
0 0 0 0 0 0 0 0 0 0 0 0 0 0 0 0 0 0 0 0 0 0
0 0 0 0 0 0 0 0 0 0 0 0 0 0 0 0 0 0 0 0 0 0
0 0 0 0 0 0 0 0 0 0 0 0 0 0 0 0 0 0 0 0 0 0
0 0 0 0 0 0 0 0 0 0 0 0 0 0 0 0 0 0 0 0 0 0
0 0 0 0 0 0 0 0 0 0 0 0 0 0 0 0 0 0 0 0 0 0
0 0 0 0 0 0 0 0 0 0 0 0 0 0 0 0 0 0 0 0 0 0
Wind_Speed_500mb
79 83 84 84 86 87 86 84 82 82 83 85 86 85 84 85 84 80 79 80 82 82
82 83 85 85 88 90 91 90 89 87 85 82 85 88 90 91 95 91 87 88 85 86
75 80 84 88 93 94 94 97 97 94 92 90 86 84 89 95 97 102 99 96 94 89
64 72 79 87 92 97 99 100 101 100 97 94 90 87 88 92 96 102 108 107 103 96
39 50 65 77 85 88 90 90 90 89 91 90 91 90 89 91 88 93 100 105 113 108
41 45 49 55 64 75 83 89 87 83 84 86 89 90 91 92 90 96 98 95 102 115
42 44 46 46 50 56 64 73 79 79 77 78 79 84 86 83 87 93 96 93 100 94
37 41 42 43 43 43 47 53 62 71 78 81 81 82 77 77 81 84 84 93 89 80
40 43 43 42 42 43 43 47 51 56 62 74 77 75 76 73 77 81 81 87 87 91
41 41 43 44 44 44 45 48 51 53 56 59 64 71 72 69 71 76 82 84 85 96
41 41 42 44 44 45 47 49 50 50 52 57 54 54 58 61 70 74 75 85 74 73
41 41 44 45 46 47 46 44 42 42 42 47 49 54 54 56 57 56 57 56 63 62
38 41 45 46 49 49 47 43 36 33 35 36 34 37 43 50 52 54 55 53 60 59
31 31 33 37 38 39 37 34 30 30 33 36 33 36 34 39 40 45 48 56 55 54
Wind_Direction_500mb
261 261 262 264 265 265 266 267 267 264 261 261 261 259 255 250 248 247 245 245 245 247
262 262 264 267 268 269 271 271 270 270 269 265 263 262 261 257 252 249 247 246 247 247
261 264 266 267 267 269 271 273 274 274 274 274 270 265 263 261 258 253 250 247 247 248
253 255 257 260 264 268 271 271 274 275 276 276 277 274 268 264 263 260 255 251 249 249
267 263 260 259 260 262 265 268 269 270 272 273 272 272 273 267 265 265 265 260 255 251
274 272 271 268 265 263 263 264 265 267 267 269 271 271 271 267 263 270 263 264 261 255
285 280 279 278 276 272 269 266 264 263 263 267 272 272 272 272 271 271 268 268 264 268
288 283 281 278 276 276 275 272 269 265 259 260 263 268 272 275 274 274 276 272 271 266
281 280 282 283 280 276 276 275 273 272 270 263 262 266 269 270 273 275 276 277 279 264
272 275 277 277 278 279 280 280 277 275 274 271 266 262 265 265 267 271 272 273 272 275
266 272 276 278 280 280 280 280 281 280 278 275 271 261 260 261 272 270 272 274 272 272
276 282 284 282 280 277 280 282 281 283 285 280 272 264 259 263 269 279 280 281 281 272
287 290 292 292 289 287 287 286 288 296 302 303 299 282 273 264 267 271 274 279 274 265
291 292 292 288 284 280 281 286 292 297 300 301 297 286 278 278 275 277 273 272 267 254
Wind_Speed_850mb
79 83 84 84 86 87 86 84 82 82 83 85 86 85 84 85 84 80 79 80 82 82
82 83 85 85 88 90 91 90 89 87 85 82 85 88 90 91 95 91 87 88 85 86
75 80 84 88 93 94 94 97 97 94 92 90 86 84 89 95 97 102 99 96 94 89
64 72 79 87 92 97 99 100 101 100 97 94 90 87 88 92 96 102 108 107 103 96
39 50 65 77 85 88 90 90 90 89 91 90 91 90 89 91 88 93 100 105 113 108
41 45 49 55 64 75 83 89 87 83 84 86 89 90 91 92 90 96 98 95 102 115
42 44 46 46 50 56 64 73 79 79 77 78 79 84 86 83 87 93 96 93 100 94
37 41 42 43 43 43 47 53 62 71 78 81 81 82 77 77 81 84 84 93 89 80
40 43 43 42 42 43 43 47 51 56 62 74 77 75 76 73 77 81 81 87 87 91
41 41 43 44 44 44 45 48 51 53 56 59 64 71 72 69 71 76 82 84 85 96
41 41 42 44 44 45 47 49 50 50 52 57 54 54 58 61 70 74 75 85 74 73
41 41 44 45 46 47 46 44 42 42 42 47 49 54 54 56 57 56 57 56 63 62
38 41 45 46 49 49 47 43 36 33 35 36 34 37 43 50 52 54 55 53 60 59
31 31 33 37 38 39 37 34 30 30 33 36 33 36 34 39 40 45 48 56 55 54
Wind_Direction_850mb
261 261 262 264 265 265 266 267 267 264 261 261 261 259 255 250 248 247 245 245 245 247
262 262 264 267 268 269 271 271 270 270 269 265 263 262 261 257 252 249 247 246 247 247
261 264 266 267 267 269 271 273 274 274 274 274 270 265 263 261 258 253 250 247 247 248
253 255 257 260 264 268 271 271 274 275 276 276 277 274 268 264 263 260 255 251 249 249
267 263 260 259 260 262 265 268 269 270 272 273 272 272 273 267 265 265 265 260 255 251
274 272 271 268 265 263 263 264 265 267 267 269 271 271 271 267 263 270 263 264 261 255
285 280 279 278 276 272 269 266 264 263 263 267 272 272 272 272 271 271 268 268 264 268
288 283 281 278 276 276 275 272 269 265 259 260 263 268 272 275 274 274 276 272 271 266
281 280 282 283 280 276 276 275 273 272 270 263 262 266 269 270 273 275 276 277 279 264
272 275 277 277 278 279 280 280 277 275 274 271 266 262 265 265 267 271 272 273 272 275
266 272 276 278 280 280 280 280 281 280 278 275 271 261 260 261 272 270 272 274 272 272
276 282 284 282 280 277 280 282 281 283 285 280 272 264 259 263 269 279 280 281 281 272
287 290 292 292 289 287 287 286 288 296 302 303 299 282 273 264 267 271 274 279 274 265
291 292 292 288 284 280 281 286 292 297 300 301 297 286 278 278 275 277 273 272 267 254